Tracking 19562 objects as of 21-Mar-2019
HD Live streaming from Space Station
objects crossing your sky now

INSAT 3B

Track INSAT 3B now!
INSAT 3B is classified as:


NORAD ID: 26108
Int'l Code: 2000-016B
Perigee: 35,934.9 km
Apogee: 35,999.8 km
Inclination: 5.5 °
Period: 1,445.0 minutes
Semi major axis: 42338 km
RCS: 5.0119 m2 (large)
Launch date: March 21, 2000
Source: India (IND)
Launch site: FRENCH GUIANA (FRGUI)

Voice, data and fax transmissions.
aabbcc
Your satellite tracking list
Your tracking list is empty




NASA's NSSDC Master Catalog

Two Line Element Set (TLE):
1 26108U 00016B   19079.84801558 -.00000154 +00000-0 +00000-0 0  9990
2 26108 005.5134 063.3928 0007668 229.1696 106.6482 00.99655754025060
Source of the keplerian elements: AFSPC